When you browse on this site, cookies collect data to enhance your experience and personalize the content and advertising you see.
Visit our Privacy Policy to learn more. By continuing to use the site, you agree to this use of cookies and data.

Meteo orario Hoyerswerda

Oggi, 16 Luglio, Giovedi

Tempo Temperatura Precipitazioni Vento Pressione Umidità
00:00 +14°C° 0 mm 1 m/s 749 mm Hg 96%
01:00 +14°C° 0 mm 2 m/s 750 mm Hg 97%
02:00 +13°C° 0 mm 2 m/s 749 mm Hg 97%
03:00 +13°C° 0 mm 2 m/s 749 mm Hg 97%
04:00 +13°C° 0 mm 2 m/s 749 mm Hg 96%
05:00 +12°C° 0.1 mm 3 m/s 750 mm Hg 93%
06:00 +13°C° 0.1 mm 3 m/s 750 mm Hg 90%
07:00 +14°C° 0.1 mm 3 m/s 750 mm Hg 87%
08:00 +16°C° 0.2 mm 3 m/s 750 mm Hg 79%
09:00 +17°C° 0.2 mm 3 m/s 750 mm Hg 70%
10:00 +19°C° 0.2 mm 4 m/s 750 mm Hg 62%
11:00 +20°C° 0.1 mm 4 m/s 750 mm Hg 58%
12:00 +20°C° 0.1 mm 4 m/s 750 mm Hg 55%
13:00 +21°C° 0.1 mm 4 m/s 750 mm Hg 52%
14:00 +21°C° 0.5 mm 4 m/s 750 mm Hg 54%
15:00 +21°C° 0.5 mm 4 m/s 749 mm Hg 57%
16:00 +21°C° 0.5 mm 4 m/s 749 mm Hg 60%
17:00 +20°C° 0.5 mm 3 m/s 749 mm Hg 65%
18:00 +19°C° 0.5 mm 3 m/s 750 mm Hg 71%
19:00 +18°C° 0.5 mm 3 m/s 750 mm Hg 76%
20:00 +16°C° 0.2 mm 2 m/s 750 mm Hg 81%
21:00 +15°C° 0.2 mm 2 m/s 750 mm Hg 85%
22:00 +14°C° 0.2 mm 2 m/s 751 mm Hg 89%
23:00 +13°C° 0 mm 1 m/s 751 mm Hg 91%

Domani, 17 Luglio, Venerdi

Tempo Temperatura Precipitazioni Vento Pressione Umidità
00:00 +13°C° 0 mm 1 m/s 751 mm Hg 93%
01:00 +13°C° 0 mm 1 m/s 752 mm Hg 94%
02:00 +12°C° 0 mm 1 m/s 752 mm Hg 95%
03:00 +12°C° 0 mm 1 m/s 752 mm Hg 95%
04:00 +12°C° 0 mm 1 m/s 751 mm Hg 96%
05:00 +13°C° 0 mm 2 m/s 752 mm Hg 92%
06:00 +14°C° 0 mm 2 m/s 752 mm Hg 89%
07:00 +14°C° 0 mm 3 m/s 752 mm Hg 85%
08:00 +16°C° 0.1 mm 3 m/s 752 mm Hg 78%
09:00 +18°C° 0.1 mm 3 m/s 752 mm Hg 71%
10:00 +19°C° 0.1 mm 4 m/s 752 mm Hg 64%
11:00 +19°C° 0.2 mm 4 m/s 752 mm Hg 65%
12:00 +19°C° 0.2 mm 5 m/s 752 mm Hg 66%
13:00 +20°C° 0.2 mm 5 m/s 752 mm Hg 67%
14:00 +20°C° 0.1 mm 5 m/s 752 mm Hg 67%
15:00 +20°C° 0.1 mm 4 m/s 752 mm Hg 68%
16:00 +20°C° 0.1 mm 4 m/s 751 mm Hg 69%
17:00 +20°C° 0.3 mm 3 m/s 751 mm Hg 73%
18:00 +19°C° 0.3 mm 3 m/s 751 mm Hg 78%
19:00 +19°C° 0.3 mm 2 m/s 751 mm Hg 83%
20:00 +18°C° 0.7 mm 2 m/s 751 mm Hg 87%
21:00 +17°C° 0.7 mm 2 m/s 751 mm Hg 91%
22:00 +16°C° 0.7 mm 2 m/s 752 mm Hg 95%
23:00 +16°C° 0.2 mm 2 m/s 752 mm Hg 96%

Dopodomani, 18 Luglio, Sabato

Tempo Temperatura Precipitazioni Vento Pressione Umidità
00:00 +15°C° 0.2 mm 2 m/s 752 mm Hg 96%
01:00 +15°C° 0.2 mm 2 m/s 752 mm Hg 97%
02:00 +15°C° 0 mm 2 m/s 751 mm Hg 97%
03:00 +14°C° 0 mm 2 m/s 751 mm Hg 97%
04:00 +14°C° 0 mm 2 m/s 751 mm Hg 97%
05:00 +15°C° 0 mm 2 m/s 751 mm Hg 95%
06:00 +15°C° 0 mm 2 m/s 751 mm Hg 93%
07:00 +16°C° 0 mm 2 m/s 752 mm Hg 91%
08:00 +18°C° 0 mm 1 m/s 752 mm Hg 87%
09:00 +19°C° 0 mm 1 m/s 751 mm Hg 84%
10:00 +20°C° 0 mm 1 m/s 751 mm Hg 80%
11:00 +21°C° 0.1 mm 1 m/s 751 mm Hg 76%
12:00 +22°C° 0.1 mm 1 m/s 751 mm Hg 71%
13:00 +23°C° 0.1 mm 1 m/s 751 mm Hg 67%
14:00 +24°C° 0.2 mm 1 m/s 751 mm Hg 64%
15:00 +24°C° 0.2 mm 1 m/s 751 mm Hg 61%
16:00 +25°C° 0.2 mm 1 m/s 750 mm Hg 58%
17:00 +24°C° 0.1 mm 1 m/s 750 mm Hg 63%
18:00 +23°C° 0.1 mm 1 m/s 750 mm Hg 68%
19:00 +23°C° 0.1 mm 1 m/s 750 mm Hg 73%
20:00 +19°C° 0 mm 0 m/s 750 mm Hg 77%
21:00 +18°C° 0 mm 0 m/s 751 mm Hg 81%
22:00 +17°C° 0 mm 0 m/s 751 mm Hg 84%
23:00 +17°C° 0 mm 0 m/s 751 mm Hg 85%

19 Luglio, Domenica

Tempo Temperatura Precipitazioni Vento Pressione Umidità
00:00 +19°C° 0 mm 1 m/s 751 mm Hg 85%
01:00 +19°C° 0 mm 1 m/s 751 mm Hg 85%
02:00 +19°C° 0 mm 1 m/s 750 mm Hg 87%
03:00 +18°C° 0 mm 1 m/s 750 mm Hg 89%
04:00 +18°C° 0 mm 1 m/s 750 mm Hg 91%
05:00 +19°C° 0 mm 1 m/s 750 mm Hg 87%
06:00 +20°C° 0 mm 1 m/s 750 mm Hg 84%
07:00 +21°C° 0 mm 1 m/s 750 mm Hg 80%
08:00 +22°C° 0.2 mm 1 m/s 750 mm Hg 77%
09:00 +23°C° 0.2 mm 1 m/s 750 mm Hg 73%
10:00 +24°C° 0.2 mm 1 m/s 750 mm Hg 69%
11:00 +25°C° 0.5 mm 1 m/s 750 mm Hg 66%
12:00 +26°C° 0.5 mm 1 m/s 750 mm Hg 64%
13:00 +27°C° 0.5 mm 2 m/s 749 mm Hg 61%
14:00 +26°C° 1 mm 2 m/s 749 mm Hg 65%
15:00 +26°C° 1 mm 1 m/s 749 mm Hg 68%
16:00 +25°C° 1 mm 1 m/s 749 mm Hg 71%
17:00 +25°C° 1 mm 1 m/s 748 mm Hg 74%
18:00 +24°C° 1 mm 1 m/s 748 mm Hg 76%
19:00 +23°C° 1 mm 1 m/s 748 mm Hg 79%
20:00 +22°C° 0.9 mm 1 m/s 748 mm Hg 81%
21:00 +22°C° 0.9 mm 1 m/s 749 mm Hg 84%
22:00 +21°C° 0.9 mm 1 m/s 749 mm Hg 86%
23:00 +21°C° 1.1 mm 1 m/s 748 mm Hg 87%

20 Luglio, Lunedi

Tempo Temperatura Precipitazioni Vento Pressione Umidità
00:00 +20°C° 1.1 mm 1 m/s 748 mm Hg 89%
01:00 +19°C° 1.1 mm 2 m/s 748 mm Hg 91%
02:00 +19°C° 0.7 mm 2 m/s 748 mm Hg 91%
03:00 +18°C° 0.7 mm 2 m/s 748 mm Hg 92%
04:00 +18°C° 0.7 mm 2 m/s 748 mm Hg 93%
05:00 +19°C° 0.4 mm 2 m/s 748 mm Hg 90%
06:00 +19°C° 0.4 mm 3 m/s 748 mm Hg 88%
07:00 +20°C° 0.4 mm 3 m/s 748 mm Hg 86%
08:00 +21°C° 0.5 mm 3 m/s 748 mm Hg 82%
09:00 +22°C° 0.5 mm 4 m/s 748 mm Hg 79%
10:00 +25°C° 0.5 mm 4 m/s 748 mm Hg 75%
11:00 +23°C° 0.7 mm 5 m/s 749 mm Hg 76%
12:00 +23°C° 0.7 mm 5 m/s 749 mm Hg 76%
13:00 +23°C° 0.7 mm 6 m/s 749 mm Hg 77%
14:00 +23°C° 0.1 mm 5 m/s 749 mm Hg 72%
15:00 +23°C° 0.1 mm 4 m/s 749 mm Hg 68%
16:00 +23°C° 0.1 mm 4 m/s 750 mm Hg 63%
17:00 +23°C° 0 mm 4 m/s 750 mm Hg 66%
18:00 +22°C° 0 mm 3 m/s 750 mm Hg 68%
19:00 +21°C° 0 mm 3 m/s 750 mm Hg 71%
20:00 +19°C° 0 mm 3 m/s 751 mm Hg 73%
21:00 +18°C° 0 mm 2 m/s 751 mm Hg 74%
22:00 +16°C° 0 mm 2 m/s 752 mm Hg 76%
23:00 +15°C° 0 mm 2 m/s 752 mm Hg 79%

21 Luglio, Martedi

Tempo Temperatura Precipitazioni Vento Pressione Umidità
00:00 +15°C° 0 mm 2 m/s 752 mm Hg 81%
01:00 +14°C° 0 mm 1 m/s 752 mm Hg 84%
02:00 +14°C° 0 mm 1 m/s 752 mm Hg 86%
03:00 +13°C° 0 mm 1 m/s 752 mm Hg 89%
04:00 +13°C° 0 mm 1 m/s 752 mm Hg 91%
05:00 +14°C° 0 mm 1 m/s 753 mm Hg 85%
06:00 +15°C° 0 mm 1 m/s 753 mm Hg 79%
07:00 +16°C° 0 mm 1 m/s 753 mm Hg 73%
08:00 +19°C° 0 mm 1 m/s 753 mm Hg 66%
09:00 +19°C° 0 mm 2 m/s 753 mm Hg 59%
10:00 +20°C° 0 mm 2 m/s 753 mm Hg 52%
11:00 +21°C° 0 mm 2 m/s 753 mm Hg 49%
12:00 +23°C° 0 mm 2 m/s 752 mm Hg 47%
13:00 +22°C° 0 mm 3 m/s 752 mm Hg 45%
14:00 +22°C° 0 mm 3 m/s 752 mm Hg 46%
15:00 +22°C° 0 mm 3 m/s 752 mm Hg 47%
16:00 +22°C° 0 mm 4 m/s 751 mm Hg 48%
17:00 +21°C° 0 mm 3 m/s 751 mm Hg 53%
18:00 +20°C° 0 mm 3 m/s 752 mm Hg 58%
19:00 +19°C° 0 mm 3 m/s 752 mm Hg 63%
20:00 +17°C° 0 mm 2 m/s 752 mm Hg 68%
21:00 +16°C° 0 mm 2 m/s 753 mm Hg 73%
22:00 +14°C° 0 mm 2 m/s 753 mm Hg 78%
23:00 +13°C° 0 mm 2 m/s 753 mm Hg 81%
Mostrare altro